Home > Weather > Horten > Past weeks

Flag for Norway Past Weather in Horten, Norway — Yesterday and Last 2 Weeks

Now
55 °F

Partly sunny.


Feels Like: 51 °F
Forecast: 57 / 67 °F
Wind: 16 mph from North

Location: Oseberg

Current Time: Aug 25, 2016 at 3:39:09 PM

Latest Report: Aug 25, 2016 at 2:50 PM


Visibility: N/A

Pressure: 30.09 "Hg

Humidity: 82%

Dew Point: 50 °F

Location of HortenLocation

Past Weather in Horten — Graph

°F

Horten Temperature Yesterday

Maximum temperature yesterday: 61 °F (at 2:20 PM)
Minimum temperature yesterday: 55 °F (at 5:20 PM)
Average temperature yesterday: 57 °F

High & Low Weather Summary for the Past Weeks

 TemperatureHumidityPressure
High66 °F (Aug 22, 1:20 PM)100% (Aug 12, 3:50 AM)30.30 "Hg (Aug 12, 3:50 AM)
Low50 °F (Aug 10, 2:20 PM)59% (Aug 16, 4:20 PM)29.53 "Hg (Aug 12, 3:20 PM)
Average56 °F88%29.99 "Hg
* Reported Aug 10 2:20 PM — Aug 25 2:20 PM, Horten, Weather by CustomWeather, © 2016

Note: Actual official high and low records may vary slightly from our data, if they occured in-between our weather recording intervals... More about our weather records

Advertising

Horten Weather History for the Previous 24 Hours

Scroll right to see more
 ConditionsComfort  
Time TempWeatherWind HumidityBarometerVisibility
2:20 PM
Thu, Aug 25
55 °FPartly sunny.18 mph82%30.12 "HgN/A
1:50 PM55 °FOvercast.16 mph88%30.12 "HgN/A
1:20 PM55 °FLow clouds.15 mph88%30.12 "HgN/A
12:50 PM55 °FPartly sunny.15 mph88%30.12 "HgN/A
12:20 PM55 °FPartly sunny.13 mph88%30.12 "HgN/A
11:20 AM57 °FPartly sunny.9 mph77%30.12 "HgN/A
10:50 AM57 °FOvercast.10 mph77%30.12 "HgN/A
10:20 AM55 °FOvercast.8 mph82%30.12 "HgN/A
9:50 AM55 °FOvercast.13 mph82%30.12 "HgN/A
9:20 AM55 °FOvercast.15 mph82%30.09 "HgN/A
8:50 AM57 °FOvercast.13 mph77%30.12 "HgN/A
8:20 AM55 °FOvercast.14 mph82%30.12 "HgN/A
7:50 AM57 °FOvercast.12 mph82%30.12 "HgN/A
7:20 AM57 °FOvercast.12 mph82%30.12 "HgN/A
6:50 AM57 °FOvercast.7 mph82%30.12 "HgN/A
6:20 AM55 °FOvercast.9 mph82%30.12 "HgN/A
5:50 AM55 °FOvercast.10 mph82%30.12 "HgN/A
4:50 AM55 °FOvercast.9 mph88%30.15 "HgN/A
3:50 AM55 °FLow clouds.9 mph88%30.15 "HgN/A
2:50 AM55 °FLow clouds.9 mph88%30.15 "HgN/A
1:50 AM55 °FLow clouds.9 mph94%30.15 "HgN/A
12:50 AM54 °FFog.10 mph100%30.12 "Hg2 mi
11:50 PM
Wed, Aug 24
55 °FLow clouds.9 mph94%30.12 "Hg5 mi
10:50 PM55 °FFog.12 mph94%30.12 "Hg3 mi
9:50 PM55 °FFog.8 mph94%30.12 "Hg1 mi
8:50 PM55 °FPartly sunny.10 mph94%30.12 "HgN/A
7:50 PM55 °FPartly sunny.10 mph100%30.09 "Hg6 mi
7:20 PM55 °FPartly sunny.10 mph100%30.09 "HgN/A
6:50 PM55 °FFog.10 mph100%30.09 "Hg5 mi
6:20 PM55 °FFog.12 mph100%30.09 "Hg5 mi
5:50 PM55 °FRain. Fog.14 mph100%30.07 "HgN/A
5:20 PM55 °FFog.15 mph100%30.07 "Hg0 mi
4:50 PM57 °FFog.15 mph94%30.07 "Hg0 mi
4:20 PM59 °FFog.14 mph94%30.07 "Hg1 mi
3:50 PM61 °FFog.7 mph94%30.07 "HgN/A
3:20 PM59 °FFog.8 mph94%30.07 "HgN/A
Weather by CustomWeather, © 2016

See weather overviewHow to use our weather pages